Regional Weather Roundup
Issued by NWS Newport/Morehead, NC

Current Version | Previous Version | Text Only | Print | Product List | Glossary On
Versions: 1 2 3 4 5 6 7 8 9 10 11 12 13 14 15 16 17 18 19 20 21 22 23 24 25 26 27 28 29 30 31 32 33 34 35 36 37 38 39 40 41 42 43 44 45 46 47 48 49 50
000 ASUS42 KMHX 301125 RWRMHX WEATHER ROUNDUP FOR EASTERN NORTH CAROLINA NATIONAL WEATHER SERVICE NEWPORT/MOREHEAD CITY NC 700 AM EDT TUE AUG 30 2016 NOTE: "FAIR" INDICATES FEW OR NO CLOUDS BELOW 12,000 FEET WITH NO SIGNIFICANT WEATHER AND/OR OBSTRUCTIONS TO VISIBILITY NCZ015>017-031-032-045>047-102-103-301200- NORTH COAST CITY SKY/WX TMP DP RH WIND PRES REMARKS EDENTON CLEAR N/A N/A N/A N6 30.09R ELIZABETH CITY CLEAR 73 71 93 NE9 30.08R KITTY HAWK MOSUNNY 79 77 95 NE6 30.04S MANTEO CLOUDY 78 76 92 E12 30.05S $$ NCZ045>047-081-094-103-104-301200- CENTRAL COAST CITY SKY/WX TMP DP RH WIND PRES REMARKS FRISCO CLOUDY 80 76 87 NE9G17 30.01R $$ NCZ095-097-098-100-101-301200- SOUTHERN COAST CITY SKY/WX TMP DP RH WIND PRES REMARKS BEAUFORT CLOUDY 76 74 93 N7 30.02R CEDAR ISLAND NOT AVBL JACKSONVILLE PTCLDY 72 69 90 N7 30.05R PINEY ISLAND NOT AVBL WILMINGTON PTCLDY 72 70 93 N5 30.04R $$ NCZ011>013-027>030-043-044-078>080-089-090>093-098-301200- COASTAL PLAIN CITY SKY/WX TMP DP RH WIND PRES REMARKS AHOSKIE CLEAR 67 65 94 CALM 30.10R CLINTON CLEAR 69 69 100 CALM 30.08R ELIZABETHTOWN MOCLDY 71 71 100 CALM 30.06R GOLDSBORO MOCLDY 69 69 100 NE3 30.06R GREENVILLE CLEAR 64 64 100 N3 30.09R FOG HAVELOCK CLOUDY 75 72 90 N9 30.05R KENANSVILLE CLEAR 68 68 100 N5 30.07R KINSTON CLEAR 66 66 100 N5 30.08R NEW BERN MOCLDY 72 70 93 N5 30.06R RICHLANDS CLEAR 70 69 97 N6 30.07R ROCKY MOUNT CLEAR 68 66 93 N5 30.09R WASHINGTON CLEAR 67 67 97 N3 30.07R WHITEVILLE PTCLDY 72 70 95 CALM 30.05R $$ AMZ130-135-150-152-154-156-158-170-250-252-270-ANZ085-086-088-633-658-670-301200- MARINE OBSERVATIONS STATION/POSITION TIME TEMP WIND PRES WAVE SWELL AIR SEA DIR/SP/G HT/PER HT/PER (UTC) (F) (DEG/KT/KT) (MB) (FT/S) (FT/S) CHESAPEAKE LIGHT NOT AVBL 64 E VA BEACH 1050 80 80 50/ 14/ 16 1017.6 5/13 5/13 DUCK 1100 79 79 40/ 15/ 16 1017.3 2 E DUCK 1011 79 N/A 4/13 2/13 OREGON INLET 1100 78 81 40/ 10/ 14 1017.0 13E OREGON INLT 1100 80 N/A 5/13 5/13 HATTERAS CG 1100 80 82 30/ 12/ 15 1015.9 DIAMOND BUOY 0950 76 84 100/ 19/ 27 1015.3 7/13 3/13 CAPE LOOKOUT 1100 79 360/ 12/ 14 1015.7 BEAUFORT LAB 1100 77 81 350/ 8/ 9 1015.9 30 SE NEW RVR IN 1108 80 84 30/ 16/ 19 1016.1 30 SE NEW RVR IN 1025 84 N/A 5/13 2/13 27 SE WRIGHTSVLE 1108 80 84 10/ 16/ 19 1016.5 5 SE WRIGHTSVLE 1108 77 83 30/ 12/ 16 1017.8 225 S CAPE HAT 1050 82 83 240/ 12/ 14 1015.7 4/11 3/11 41 SE CHARLESTON 1050 81 84 60/ 4/ 8 1015.8 3/13 3/13 $$

USA.gov is the U.S. government's official web portal to all federal, state and local government web resources and services.